Regional Weather Roundup
Issued by NWS

Home | Current Version | Previous Version | Text Only | Print | Product List | Glossary Off
Versions: 1 2 3 4 5 6 7 8 9 10 11 12 13 14 15 16 17 18 19 20 21 22 23 24 25 26 27 28 29 30 31 32 33 34 35 36 37 38 39 40 41 42 43 44 45 46 47 48 49 50

000
ASUS45 KABQ 240201
RWRNM
WEATHER ROUNDUP FOR NEW MEXICO
NATIONAL WEATHER SERVICE ALBUQUERQUE NM
800 PM MDT WED APR 23 2014

NOTE: "FAIR" MEANS FEW OR NO CLOUDS BELOW 12,000 FEET AGL WITH NO
       SIGNIFICANT WEATHER OR OBSTRUCTIONS TO VISION.

      THIS PRODUCT IS RELEASED AS TWO VERSIONS.  ONE VERSION NEAR
      THE TOP OF THE HOUR CONTAINING PRELIMINARY DATA FROM ALBUQUERQUE
      AND OTHER STATIONS.  A FINAL VERSION WITH ADDITIONAL DATA IS
      ISSUED ABOUT 10 MINUTES AFTER THE HOUR.

NMZ501-503-504-510>518-240300-
NORTHWEST PLATEAU/NORTHCENTRAL MOUNTAINS

CITY           SKY/WX    TMP DP  RH WIND       PRES   REMARKS
FARMINGTON     CLEAR     54   9  16 W23G32    29.91R
LOS ALAMOS     MOCLDY    51  13  21 W26G40    29.89R
SANTA FE       MOCLDY    55  16  21 NW16G29   29.86R
TAOS           MOCLDY    48  18  29 W7        29.92R
ANGEL FIRE     FAIR      44  25  47 W10G23    29.91R

$$
NMZ402-403-502-505>509-240300-
WESTCENTRAL MOUNTAINS/SOUTHWEST MOUNTAINS

CITY           SKY/WX    TMP DP  RH WIND       PRES   REMARKS
GALLUP         CLEAR     55   7  14 W12       29.95R
SILVER CITY    CLEAR     66  14  13 W21       29.92R

$$
NMZ407-409-411-412-240300-
SOUTHERN DESERTS

CITY           SKY/WX    TMP DP  RH WIND       PRES   REMARKS
LORDSBURG      FAIR      72  12  10 W16G24    29.87R
DEMING         CLEAR     73  20  13 W24G38    29.82R
LAS CRUCES     CLEAR     74  21  13 W25G32    29.83R
HOLLOMAN AFB   CLEAR     76  18  11 W20       29.77R
T OR C         CLEAR     72  11   9 W17G33    29.82R

$$
NMZ519>523-240300-
CENTRAL VALLEYS/CENTRAL HIGHLANDS

CITY           SKY/WX    TMP DP  RH WIND       PRES   REMARKS
ALBUQUERQUE    CLOUDY    63  17  17 NW21G31   29.85R
DOUBLE EAGLE   PTCLDY    59  16  18 W21G30    29.87R
CLINES CORNERS CLOUDY    53  19  26 NW23G37   29.88R
BELEN          FAIR      64  17  16 W23G31    29.85R
SOCORRO        NOT AVBL

$$
NMZ524>526-539-540-240300-
SOUTHCENTRAL MOUNTAINS

CITY           SKY/WX    TMP DP  RH WIND       PRES   REMARKS
RUIDOSO        NOT AVBL

$$
NMZ527>531-240300-
NORTHEAST HIGHLANDS/NORTHEAST PLAINS

CITY           SKY/WX    TMP DP  RH WIND       PRES   REMARKS
LAS VEGAS      CLOUDY    54  18  24 W20G35    29.84R
RATON          MOCLDY    57  26  30 W28G37    29.76R
CLAYTON        CLEAR     69  22  16 W21G29    29.64R

$$
NMZ532>537-240300-
EASTCENTRAL PLAINS

CITY           SKY/WX    TMP DP  RH WIND       PRES   REMARKS
TUCUMCARI      MOCLDY    77  23  13 W29G47    29.61R HAZE
CANNON AFB     CLEAR     69  13  11 SW13      29.66R
CLOVIS AIRPORT CLEAR     73  18  12 SW18      29.68R

$$
NMZ028-029-538-240300-
SOUTHEAST PLAINS

CITY           SKY/WX    TMP DP  RH WIND       PRES   REMARKS
ROSWELL        CLEAR     80  12   7 W22       29.66R
CARLSBAD       CLEAR     77  17  10 SW9       29.69R
HOBBS          CLEAR     75  18  11 SW9       29.72R


$$



USA.gov is the U.S. government's official web portal to all federal, state and local government web resources and services.